Location: Altamira
(10.5079°N, 66.8544°W)
Time: 02:07:04
(UTC+00:00)

CORIOLIS - Pass Details

Date: 09 July 2022
Orbit: 819 x 837 km, 98.7° (Epoch: 17 August)

Event Time Altitude Azimuth Distance (km) Brightness Sun altitude
Rises 09:35:24 0° 39° (NE) 3,366 8.6 -9.0°
Reaches altitude 10° 09:38:27 10° 57° (ENE) 2,436 8.3 -8.3°
Maximum altitude 09:42:09 19° 100° (E) 1,888 6.9 -7.4°
Drops below altitude 10° 09:45:52 10° 144° (SE) 2,442 6.8 -6.6°
Sets 09:48:54 0° 162° (SSE) 3,378 7.3 -5.9°
